Tracking 27086 objects as of 22-Mar-2023
HD Live streaming from Space Station
objects crossing your sky now

STARLINK-5471

Track STARLINK-5471 now!
10-day predictions
STARLINK-5471 is classified as:


NORAD ID: 54766
Int'l Code: 2022-175J
Perigee: 545.7 km
Apogee: 548.1 km
Inclination: 53.2 °
Period: 95.4 minutes
Semi major axis: 6917 km
RCS: Unknown
Launch date: December 17, 2022
Source: United States (US)
Launch site: AIR FORCE EASTERN TEST RANGE (AFETR)
Your satellite tracking list
Your tracking list is empty




NASA's NSSDC Master Catalog

Two Line Element Set (TLE):
1 54766U 22175J   23081.56209058  .00002737  00000-0  18997-3 0  9990
2 54766  53.2194 226.4601 0001717 112.7350 247.3824 15.08842133 14246
Source of the keplerian elements: AFSPC